Weerstation Grootegast  Weerstation Grootegast


15 daagse weersverwachting Ennis (IE)

  • Overzicht
  • Per uur
  • 15 dagen
  • Extra
  • Vergelijk
  • Kaarten
  • Dagkaart
  • Meer »
  • Info
  • Statistieken
  • Directe link
    Temp 6h Neerslag Wind  
 05:12     22:03    Daglengte: 16:51 Vandaag
01:00
11°
 
5
07:00
12°
2.0 mm
5
13:00
16°
0.7 mm
7
19:00
15°
 
6
 05:12     22:04    Daglengte: 16:52 Morgen
01:00
10°
 
3
07:00
11°
 
2
13:00
16°
 
3
19:00
15°
 
4
 05:12     22:04    Daglengte: 16:52 Woensdag 19 Jun
01:00
10°
 
2
07:00
11°
 
2
13:00
15°
4.2 mm
5
19:00
13°
1.0 mm
6
Locatie info
Region: Clare
Latitude: 52.8469°N
Longitude: -8.9882°E
5 masl
Postcode: -1
Temp/Neerslag /Baro Onweer/Dauwpunt
    Temp Baro 1h Neerslag Dauwpunt Wind UV Bewolking  
 05:12     22:03    Daglengte: 16:51 Vandaag
01:00
11°
1008.3 hPa
48%
9.0°
5
Windvlaag: 4.2 m/s
20%
02:00
11°
1008.5 hPa
22%
9.0°
5
Windvlaag: 4.1 m/s
30%
03:00
11°
1008.4 hPa
17%
9.0°
5
Windvlaag: 4.3 m/s
45%
04:00
11°
1008.3 hPa
20%
8.9°
5
Windvlaag: 4.6 m/s
54%
05:00
11°
1008.5 hPa
24%
9.0°
5
Windvlaag: 4.6 m/s
60%
06:00
11°
1008.7 hPa 0.9 mm
66%
9.2°
5
Windvlaag: 4.4 m/s
53%
07:00
12°
1008.9 hPa 1.1 mm
35%
9.2°
5
Windvlaag: 4.4 m/s
51%
08:00
12°
1009.2 hPa 0.7 mm
44%
9.5°
6
Windvlaag: 4.4 m/s
38%
09:00
13°
1009.4 hPa
79%
10.0°
6
Windvlaag: 4.7 m/s
32%
10:00
14°
1009.9 hPa
78%
10.3°
6
Windvlaag: 4.5 m/s
37%
11:00
15°
1010.2 hPa
64%
10.4°
6
Windvlaag: 4.2 m/s
19%
12:00
15°
1010.5 hPa
70%
10.7°
6
Windvlaag: 4.1 m/s
20%
13:00
16°
1010.7 hPa
21%
10.4°
7
Windvlaag: 3.9 m/s
20%
14:00
16°
1011.0 hPa
17%
9.8°
7
Windvlaag: 3.7 m/s
26%
15:00
16°
1011.0 hPa
15%
9.4°
7
Windvlaag: 3.2 m/s
18%
16:00
16°
1011.2 hPa
15%
9.2°
6
Windvlaag: 2.8 m/s
16%
17:00
16°
1011.3 hPa
14%
9.3°
6
Windvlaag: 2.7 m/s
28%
18:00
15°
1011.5 hPa
14%
9.2°
6
Windvlaag: 2.6 m/s
19%
19:00
15°
1011.6 hPa
14%
9.2°
6
Windvlaag: 2.7 m/s
13%
20:00
14°
1011.8 hPa
14%
9.2°
5
Windvlaag: 2.7 m/s
8%
21:00
13°
1012.2 hPa
14%
9.4°
4
Windvlaag: 2.4 m/s
3%
22:00
12°
1012.6 hPa
14%
9.3°
3
Windvlaag: 2.4 m/s
2%
23:00
11°
1012.9 hPa
14%
9.3°
3
Windvlaag: 2.3 m/s
4%
 05:12     22:04    Daglengte: 16:52 Morgen
00:00
11°
1012.9 hPa
14%
9.4°
3
Windvlaag: 2.3 m/s
4%
01:00
10°
1012.9 hPa
14%
9.4°
3
Windvlaag: 2.5 m/s
13%
02:00
10°
1012.8 hPa
14%
9.4°
2
Windvlaag: 2.4 m/s
28%
03:00
10°
1012.7 hPa
16%
9.3°
2
Windvlaag: 2.4 m/s
28%
04:00
10°
Voelt als: 8.8°
1012.8 hPa
55%
9.1°
2
Windvlaag: 1.5 m/s
43%
05:00
10°
Voelt als: 9.0°
1012.6 hPa
15%
9.1°
2
Windvlaag: 1.2 m/s
33%
06:00
10°
Voelt als: 9.0°
1012.6 hPa
14%
9.1°
2
Windvlaag: 1.1 m/s
21%
07:00
11°
1012.8 hPa
14%
9.5°
2
Windvlaag: 1.4 m/s
20%
08:00
12°
1012.9 hPa
14%
9.4°
3
Windvlaag: 1.9 m/s
20%
09:00
13°
1013.0 hPa
14%
8.8°
3
Windvlaag: 1.5 m/s
41%
10:00
14°
1013.0 hPa
14%
8.3°
3
Windvlaag: 1.9 m/s
35%
11:00
15°
1012.8 hPa
14%
7.8°
3
Windvlaag: 2.1 m/s
34%
12:00
16°
1012.8 hPa
14%
7.4°
3
Windvlaag: 1.9 m/s
21%
13:00
16°
1012.5 hPa
14%
7.2°
3
Windvlaag: 1.4 m/s
22%
14:00
17°
1012.3 hPa
14%
7.2°
3
Windvlaag: 1.2 m/s
20%
15:00
17°
1012.0 hPa
14%
7.9°
4
Windvlaag: 1.1 m/s
18%
16:00
16°
1011.8 hPa
14%
8.8°
4
Windvlaag: 0.7 m/s
18%
17:00
16°
1011.5 hPa
14%
8.0°
4
Windvlaag: 0.3 m/s
11%
18:00
16°
1011.5 hPa
14%
8.2°
4
Windvlaag: -0.3 m/s
5%
19:00
15°
1011.6 hPa
14%
8.6°
4
Windvlaag: -0.4 m/s
1%
20:00
14°
1011.6 hPa
14%
9.0°
4
Windvlaag: -0.4 m/s
4%
21:00
13°
1011.7 hPa
14%
9.4°
3
Windvlaag: -0.3 m/s
8%
22:00
12°
1011.8 hPa
21%
9.7°
2
Windvlaag: -0.1 m/s
8%
23:00
11°
1011.8 hPa
21%
9.4°
2
Windvlaag: 0.1 m/s
11%
 05:12     22:04    Daglengte: 16:52 Woensdag 19 Jun
00:00
10°
1011.6 hPa
21%
9.3°
2
Windvlaag: 0.2 m/s
20%
01:00
10°
Voelt als: 9.0°
1011.2 hPa
21%
9.1°
2
Windvlaag: 0.3 m/s
15%
02:00
10°
Voelt als: 8.9°
1010.8 hPa
21%
9.2°
2
Windvlaag: 0.6 m/s
36%
03:00
10°
Voelt als: 9.2°
1010.4 hPa
23%
9.2°
2
Windvlaag: 0.8 m/s
44%
04:00
10°
Voelt als: 9.3°
1010.1 hPa
23%
9.5°
2
Windvlaag: 1.1 m/s
24%
05:00
10°
Voelt als: 9.1°
1009.9 hPa
24%
9.4°
2
Windvlaag: 1.3 m/s
37%
06:00
10°
Voelt als: 9.1°
1009.8 hPa
22%
9.4°
2
Windvlaag: 1.4 m/s
44%
07:00
11°
1009.8 hPa
25%
9.5°
2
Windvlaag: 1.7 m/s
37%
08:00
12°
1009.5 hPa
24%
9.8°
3
Windvlaag: 0.7 m/s
27%
09:00
13°
1009.4 hPa
44%
9.8°
4
Windvlaag: 0.8 m/s
55%
10:00
14°
1009.2 hPa 0.9 mm
100%
10.9°
4
Windvlaag: 1 m/s
58%
11:00
14°
1009.2 hPa 1.5 mm
100%
11.2°
4
Windvlaag: 0.9 m/s
66%
12:00
15°
1009.3 hPa 0.9 mm
100%
11.2°
4
Windvlaag: 0.9 m/s
75%
13:00
15°
1009.2 hPa 1.0 mm
100%
11.0°
5
Windvlaag: 1.1 m/s
61%
14:00
15°
1009.0 hPa 1.0 mm
100%
11.2°
5
Windvlaag: 1.1 m/s
57%
15:00
15°
1009.1 hPa
100%
10.9°
6
Windvlaag: 1.2 m/s
54%
16:00
15°
1009.0 hPa
93%
9.6°
6
Windvlaag: 1.4 m/s
75%
17:00
14°
1009.0 hPa
90%
9.6°
6
Windvlaag: 1.3 m/s
84%
18:00
14°
1008.9 hPa
82%
9.4°
6
Windvlaag: 1.3 m/s
85%
19:00
13°
1009.0 hPa
29%
9.1°
6
Windvlaag: 1.4 m/s
83%
20:00
13°
1009.1 hPa
74%
9.0°
5
Windvlaag: 9.5 m/s
81%
21:00
12°
1009.2 hPa
27%
9.1°
5
Windvlaag: 8.5 m/s
80%
22:00
12°
1009.3 hPa
28%
9.0°
4
Windvlaag: 8.4 m/s
82%
23:00
11°
1009.4 hPa
31%
8.9°
4
Windvlaag: 8.5 m/s
68%
 05:12     22:04    Daglengte: 16:52 Donderdag 20 Jun
00:00
11°
1009.4 hPa
52%
8.7°
3
Windvlaag: 9.2 m/s
82%
Temp/Neerslag /Baro Onweer/Dauwpunt
    Temp Baro Neerslag Dauwpunt Wind Bewolking  
 05:12     22:03    Daglengte: 16:51 Vandaag
01:00
11°
1008.3 hPa   9.0°
5
20%
04:00
11°
1008.3 hPa   8.9°
5
54%
07:00
12°
1008.9 hPa 2.0 mm 9.2°
5
51%
10:00
14°
1009.9 hPa 0.7 mm 10.3°
6
37%
13:00
16°
1010.7 hPa   10.4°
7
20%
16:00
16°
1011.2 hPa   9.2°
6
16%
19:00
15°
1011.6 hPa   9.2°
6
13%
22:00
12°
1012.6 hPa   9.3°
3
2%
 05:12     22:04    Daglengte: 16:52 Morgen
01:00
10°
1012.9 hPa   9.4°
3
13%
04:00
10°
Voelt als: 8.8°
1012.8 hPa   9.1°
2
43%
07:00
11°
1012.8 hPa   9.5°
2
20%
10:00
14°
1013.0 hPa   8.3°
3
35%
13:00
16°
1012.5 hPa   7.2°
3
22%
16:00
16°
1011.8 hPa   8.8°
4
18%
19:00
15°
1011.6 hPa   8.6°
4
1%
22:00
12°
1011.8 hPa   9.7°
2
8%
 05:12     22:04    Daglengte: 16:52 Woensdag 19 Jun
01:00
10°
Voelt als: 9.0°
1011.2 hPa   9.1°
2
15%
04:00
10°
Voelt als: 9.3°
1010.1 hPa   9.5°
2
24%
07:00
11°
1009.8 hPa   9.5°
2
37%
10:00
14°
1009.2 hPa 0.9 mm 10.9°
4
58%
13:00
15°
1009.2 hPa 3.4 mm 11.0°
5
61%
16:00
15°
1009.0 hPa 1.0 mm 9.6°
6
75%
19:00
13°
1009.0 hPa   9.1°
6
83%
22:00
12°
1009.3 hPa   9.0°
4
82%
 05:12     22:04    Daglengte: 16:52 Donderdag 20 Jun
01:00
11°
1009.4 hPa   8.9°
3
88%
04:00
11°
1010.3 hPa 8.4 mm 7.9°
3
62%
07:00
11°
1010.4 hPa 8.4 mm 7.6°
3
53%
10:00
12°
1011.5 hPa 8.7 mm 7.9°
4
40%
13:00
14°
1012.5 hPa 9.4 mm 8.3°
5
27%
16:00
14°
1013.3 hPa 10.3 mm 7.7°
5
20%
19:00
13°
1014.0 hPa 10.7 mm 7.0°
5
14%
22:00
11°
1015.1 hPa 10.8 mm 7.2°
4
29%
 05:12     22:04    Daglengte: 16:52 Vrijdag 21 Jun
01:00
10°
Voelt als: 8.5°
1016.2 hPa 10.8 mm 7.1°
2
43%
04:00
10°
Voelt als: 9.0°
1016.7 hPa 10.8 mm 7.5°
2
34%
07:00
11°
1017.1 hPa 10.9 mm 8.1°
2
24%
10:00
13°
1017.8 hPa 11.0 mm 7.3°
2
45%
13:00
16°
1018.5 hPa 11.2 mm 5.7°
3
65%
16:00
15°
1018.4 hPa 11.5 mm 7.8°
2
66%
19:00
15°
1018.3 hPa 11.6 mm 9.6°
2
67%
22:00
13°
1018.7 hPa 11.6 mm 9.8°
2
55%
 05:13     22:05    Daglengte: 16:52 Zaterdag 22 Jun
01:00
11°
1019.0 hPa 11.6 mm 9.6°
2
42%
04:00
11°
1018.5 hPa 11.6 mm 9.6°
2
41%
07:00
11°
1018.1 hPa 11.6 mm 9.6°
3
40%
10:00
14°
1017.6 hPa 11.6 mm 9.6°
4
66%
13:00
17°
1017.1 hPa 11.7 mm 8.7°
5
92%
16:00
17°
1016.5 hPa 11.9 mm 8.3°
5
92%
19:00
17°
1015.8 hPa 12.2 mm 7.9°
5
92%
22:00
15°
1015.9 hPa 12.4 mm 8.4°
4
92%
 05:13     22:05    Daglengte: 16:52 Zondag 23 Jun
01:00
13°
1016.0 hPa 12.4 mm 8.4°
3
92%
04:00
12°
1014.9 hPa 12.4 mm 9.1°
3
92%
07:00
12°
1013.8 hPa 12.4 mm 9.7°
3
92%
10:00
13°
1013.8 hPa 12.4 mm 11.0°
4
92%
13:00
15°
1013.7 hPa 12.8 mm 12.6°
4
92%
16:00
15°
1013.2 hPa 14.8 mm 13.0°
4
91%
19:00
15°
1012.8 hPa 16.8 mm 13.2°
4
91%
22:00
14°
1013.8 hPa   12.9°
3
91%
 05:13     22:05    Daglengte: 16:52 Maandag 24 Jun
01:00
13°
1014.7 hPa 35.4 mm 12.5°
2
92%
07:00
13°
1016.0 hPa 35.4 mm 12.0°
3
92%
13:00
18°
1017.5 hPa 35.4 mm 13.7°
2
44%
19:00
17°
1018.6 hPa 36.8 mm 13.7°
3
34%
 05:14     22:05    Daglengte: 16:51 Dinsdag 25 Jun
01:00
13°
1022.5 hPa 38.0 mm 12.1°
3
24%
07:00
13°
1025.2 hPa 38.0 mm 11.5°
3
59%
13:00
18°
1027.2 hPa 38.4 mm 10.3°
4
27%
19:00
18°
1028.2 hPa 38.8 mm 10.1°
4
33%
 05:14     22:05    Daglengte: 16:51 Woensdag 26 Jun
01:00
11°
1030.5 hPa 38.8 mm 8.2°
4
8%
07:00
11°
1030.9 hPa 38.8 mm 9.1°
3
9%
13:00
19°
1029.4 hPa 39.2 mm 9.0°
2
50%
19:00
16°
1022.5 hPa 0.7 mm 11.2°
3
53%
 05:15     22:05    Daglengte: 16:50 Donderdag 27 Jun
01:00
11°
1021.7 hPa 0.9 mm 10.1°
2
53%
07:00
12°
1019.7 hPa 1.3 mm 10.1°
2
59%
13:00
15°
1018.9 hPa 0.7 mm 11.2°
3
65%
19:00
15°
1017.7 hPa 1.7 mm 11.7°
4
58%
 05:15     22:04    Daglengte: 16:49 Vrijdag 28 Jun
01:00
11°
1017.8 hPa 0.6 mm 10.2°
2
52%
07:00
12°
1016.9 hPa 0.3 mm 10.3°
2
51%
13:00
16°
1017.1 hPa 0.3 mm 11.0°
3
56%
19:00
15°
1016.4 hPa 0.7 mm 10.8°
4
52%
 05:16     22:04    Daglengte: 16:48 Zaterdag 29 Jun
01:00
11°
1016.7 hPa 0.4 mm 9.6°
2
48%
07:00
11°
1015.7 hPa 0.7 mm 9.9°
1
60%
13:00
15°
1015.6 hPa 1.1 mm 10.6°
3
59%
19:00
15°
1015.0 hPa 0.9 mm 10.8°
4
53%
 05:17     22:04    Daglengte: 16:47 Zondag 30 Jun
01:00
11°
1015.5 hPa 0.8 mm 9.5°
2
48%
07:00
12°
1014.8 hPa 1.0 mm 10.1°
2
53%
13:00
15°
1015.1 hPa 0.5 mm 10.9°
3
66%
19:00
15°
1014.8 hPa 0.7 mm 11.3°
3
61%
 05:17     22:04    Daglengte: 16:47 Maandag 01 Jul
01:00
11°
1015.4 hPa 0.6 mm 10.0°
2
54%
07:00
11°
1014.9 hPa 0.6 mm 10.2°
1
60%
13:00
15°
1015.0 hPa 0.7 mm 11.4°
2
68%
19:00
15°
1014.3 hPa 1.3 mm 11.6°
4
69%
  CAPE Lifted Index Hail Supercell Tornado SRH 3km CL BTM PRES CL TOP PRES Swiss DWD icon SMHI TS
 05:12     22:03    Daglengte: 16:51 Vandaag
01:00 6 J/kg 2.4 K 0 % 0 % 0 % 0 m²/s² 0 0 5.43 2
02:00 0 J/kg 2.2 K 0 % 0 % 0 % 0 m²/s² 0 0 4.9 3
03:00 0 J/kg 2.5 K 0 % 0 % 0 % 0 m²/s² 0 0 4.99 2
04:00 0 J/kg 2.7 K 0 % 0 % 0 % 0 m²/s² 0 0 5.19 2
05:00 7 J/kg 2.3 K 0 % 0 % 0 % 0 m²/s² 0 0 4.64 2
06:00 7 J/kg 2.3 K 0 % 0 % 0 % 0 m²/s² 0 0 4.94 2
07:00 47 J/kg 2.3 K 0 % 0 % 0 % 0 m²/s² 0 0 5.09 2
08:00 117 J/kg 1.2 K 0 % 0 % 0 % 0 m²/s² 0 0 4.47 2
09:00 161 J/kg 0.9 K 0 % 0 % 0 % 0 m²/s² 0 0 3.54 2
10:00 183 J/kg 1.3 K 0 % 0 % 0 % 0 m²/s² 0 0 3.79 2
11:00 154 J/kg 1.6 K 0 % 0 % 0 % 0 m²/s² 0 0 4.39 2
12:00 115 J/kg 2.2 K 0 % 0 % 0 % 0 m²/s² 0 0 4.84 2
13:00 136 J/kg 1.9 K 0 % 0 % 0 % 0 m²/s² 0 0 4.39 2
14:00 154 J/kg 1.8 K 0 % 0 % 0 % 0 m²/s² 0 0 4.14 2
15:00 138 J/kg 1.8 K 0 % 0 % 0 % 0 m²/s² 0 0 4.2 1
16:00 105 J/kg 1.7 K 0 % 0 % 0 % 0 m²/s² 0 0 4.4 0
17:00 85 J/kg 1.6 K 0 % 0 % 0 % 0 m²/s² 0 0 4.81 3
18:00 64 J/kg 1.9 K 0 % 0 % 0 % 0 m²/s² 0 0 5.65 1
19:00 38 J/kg 2.6 K 0 % 0 % 0 % 0 m²/s² 0 0 6.77 1
20:00 45 J/kg 2.9 K 0 % 0 % 0 % 0 m²/s² 0 0 6.95 0
21:00 35 J/kg 3.4 K 0 % 0 % 0 % 0 m²/s² 0 0 7.69 1
22:00 13 J/kg 4.0 K 0 % 0 % 0 % 0 m²/s² 0 0 8.62 1
23:00 11 J/kg 4.4 K 0 % 0 % 0 % 0 m²/s² 0 0 9.17 0
 05:12     22:04    Daglengte: 16:52 Morgen
00:00 6 J/kg 4.6 K 0 % 0 % 0 % 0 m²/s² 0 0 9.49 2
01:00 6 J/kg 5.1 K 0 % 0 % 0 % 0 m²/s² 0 0 10.26 2
02:00 1 J/kg 5.6 K 0 % 0 % 0 % 0 m²/s² 0 0 10.76 2
03:00 1 J/kg 6.3 K 0 % 0 % 0 % 0 m²/s² 0 0 11.91 2
04:00 1 J/kg 6.6 K 0 % 0 % 0 % 0 m²/s² 0 0 12.21 2
05:00 0 J/kg 6.7 K 0 % 0 % 0 % 0 m²/s² 0 0 12.31 2
06:00 2 J/kg 7.1 K 0 % 0 % 0 % 0 m²/s² 0 0 12.71 2
07:00 1 J/kg 7.1 K 0 % 0 % 0 % 0 m²/s² 0 0 12.41 0
08:00 21 J/kg 6.1 K 0 % 0 % 0 % 0 m²/s² 0 0 11.26 1
09:00 15 J/kg 6.4 K 0 % 0 % 0 % 0 m²/s² 0 0 11.44 3
10:00 12 J/kg 6.7 K 0 % 0 % 0 % 0 m²/s² 0 0 11.86 2
11:00 13 J/kg 6.5 K 0 % 0 % 0 % 0 m²/s² 0 0 11.54 2
12:00 10 J/kg 6.5 K 0 % 0 % 0 % 0 m²/s² 0 0 11.3 2
13:00 18 J/kg 5.9 K 0 % 0 % 0 % 0 m²/s² 0 0 10.34 2
14:00 24 J/kg 5.8 K 0 % 0 % 0 % 0 m²/s² 0 0 10.12 0
15:00 15 J/kg 5.8 K 0 % 0 % 0 % 0 m²/s² 0 0 9.91 0
16:00 4 J/kg 5.9 K 0 % 0 % 0 % 0 m²/s² 0 0 9.92 0
17:00 6 J/kg 5.6 K 0 % 0 % 0 % 0 m²/s² 0 0 9.62 0
18:00 3 J/kg 5.9 K 0 % 0 % 0 % 0 m²/s² 0 0 10.01 0
19:00 4 J/kg 5.6 K 0 % 0 % 0 % 0 m²/s² 0 0 9.8 1
20:00 2 J/kg 5.3 K 0 % 0 % 0 % 0 m²/s² 0 0 9.74 1
21:00 0 J/kg 5.5 K 0 % 0 % 0 % 0 m²/s² 0 0 10.15 0
22:00 0 J/kg 6.1 K 0 % 0 % 0 % 0 m²/s² 0 0 10.87 0
23:00 0 J/kg 6.4 K 0 % 0 % 0 % 0 m²/s² 0 0 10.93 0
 05:12     22:04    Daglengte: 16:52 Woensdag 19 Jun
00:00 0 J/kg 6.6 K 0 % 0 % 0 % 0 m²/s² 0 0 11.04 1
01:00 0 J/kg 6.7 K 0 % 0 % 0 % 0 m²/s² 0 0 11.26 2
02:00 2 J/kg 6.9 K 0 % 0 % 0 % 0 m²/s² 0 0 11.97 3
03:00 2 J/kg 6.8 K 0 % 0 % 0 % 0 m²/s² 0 0 12.26 3
04:00 4 J/kg 6.8 K 0 % 0 % 0 % 0 m²/s² 0 0 12.41 2
05:00 13 J/kg 6.8 K 0 % 0 % 0 % 0 m²/s² 0 0 12.56 2
06:00 31 J/kg 6.4 K 0 % 0 % 0 % 0 m²/s² 0 0 11.83 2
07:00 38 J/kg 6.5 K 0 % 0 % 0 % 0 m²/s² 0 0 10.7 2
08:00 60 J/kg 6.1 K 0 % 0 % 0 % 0 m²/s² 0 0 9.34 2
09:00 78 J/kg 5.3 K 0 % 0 % 0 % 0 m²/s² 0 0 7.73 2
10:00 112 J/kg 5.3 K 0 % 0 % 0 % 0 m²/s² 0 0 8.12 80
11:00 102 J/kg 5.8 K 0 % 0 % 0 % 0 m²/s² 0 0 7.78 80
12:00 104 J/kg 5.3 K 0 % 0 % 0 % 0 m²/s² 0 0 7.1 80
13:00 112 J/kg 5.1 K 0 % 0 % 0 % 0 m²/s² 0 0 7.41 80
14:00 109 J/kg 5.2 K 0 % 0 % 0 % 0 m²/s² 0 0 7 80
15:00 115 J/kg 5.0 K 0 % 0 % 0 % 0 m²/s² 0 0 6.5 3
16:00 101 J/kg 4.8 K 0 % 0 % 0 % 0 m²/s² 0 0 6.09 3
17:00 103 J/kg 4.8 K 0 % 0 % 0 % 0 m²/s² 0 0 6.3 3
18:00 86 J/kg 5.2 K 0 % 0 % 0 % 0 m²/s² 0 0 6.94 3
19:00 79 J/kg 5.4 K 0 % 0 % 0 % 0 m²/s² 0 0 7.26 3
20:00 100 J/kg 5.0 K 0 % 0 % 0 % 0 m²/s² 0 0 6.62 3
21:00 99 J/kg 5.2 K 0 % 0 % 0 % 0 m²/s² 0 0 6.76 3
22:00 80 J/kg 5.4 K 0 % 0 % 0 % 0 m²/s² 0 0 7.02 3
23:00 22 J/kg 6.3 K 0 % 0 % 0 % 0 m²/s² 0 0 8.07 3
 05:12     22:04    Daglengte: 16:52 Donderdag 20 Jun
00:00 66 J/kg 5.9 K 0 % 0 % 0 % 0 m²/s² 0 0 8.12 3
Temp Baro Wind Neerslag
  EWN Forecast EWN WRFDA DWD ICON FMI HIRLAM MET Norway GFS
 05:12     22:03    Daglengte: 16:51 Vandaag
01:00 11.2° 1008.3 hPa 4.7 m/s 0.0 mm 10.5° 1007.5 hPa 5.2 m/s 2.4 mm 11.2° 1008.6 hPa 4.8 m/s -2.0 mm 12.6° 1008.4 hPa 4.3 m/s 0.0 mm 11.2° 1007.9 hPa 4.5 m/s 0.0 mm 8.9° 1008.2 hPa 3.7 m/s
04:00 11.1° 1008.3 hPa 5.0 m/s 0.0 mm 10.2° 1007.6 hPa 5.7 m/s 7.2 mm 11.0° 1008.2 hPa 5.1 m/s 0.0 mm 12.3° 1008.9 hPa 4.6 m/s 0.0 mm 11.2° 1008.2 hPa 4.8 m/s 0.0 mm 9.4° 1007.9 hPa 4.2 m/s
07:00 11.8° 1008.9 hPa 5.5 m/s 2.0 mm 11.7° 1007.8 hPa 6.4 m/s 7.4 mm 11.6° 1008.6 hPa 5.7 m/s 0.0 mm 12.4° 1009.5 hPa 4.6 m/s 0.0 mm 11.8° 1008.8 hPa 5.4 m/s 0.4 mm 11.0° 1008.1 hPa 4.7 m/s
10:00 13.9° 1009.9 hPa 6.3 m/s 0.7 mm 14.2° 1009.0 hPa 7.0 m/s 8.0 mm 13.9° 1010.2 hPa 7.3 m/s 0.0 mm 13.7° 1009.9 hPa 6.1 m/s 0.0 mm 14.1° 1009.7 hPa 5.0 m/s 0.4 mm 14.2° 1009.4 hPa 7.3 m/s
13:00 15.7° 1010.7 hPa 6.7 m/s 0.0 mm 16.3° 1009.7 hPa 7.6 m/s 8.6 mm 15.7° 1010.9 hPa 7.1 m/s 0.0 mm 14.6° 1010.6 hPa 6.5 m/s 0.0 mm 15.7° 1010.8 hPa 5.6 m/s 0.0 mm 16.2° 1010.4 hPa 7.7 m/s
16:00 16.0° 1011.2 hPa 6.3 m/s 0.0 mm 16.5° 1010.2 hPa 7.2 m/s 8.6 mm 16.4° 1011.4 hPa 6.4 m/s 0.0 mm 15.5° 1011.1 hPa 6.3 m/s 0.0 mm 16.0° 1011.2 hPa 5.5 m/s 0.0 mm 16.2° 1010.9 hPa 7.3 m/s
19:00 14.9° 1011.6 hPa 5.5 m/s 0.0 mm 15.2° 1010.6 hPa 6.4 m/s 8.6 mm 14.6° 1011.5 hPa 5.7 m/s 0.0 mm 14.9° 1011.8 hPa 5.4 m/s 0.0 mm 14.8° 1011.6 hPa 4.5 m/s 0.0 mm 14.6° 1011.3 hPa 5.9 m/s
22:00 11.9° 1012.6 hPa 3.3 m/s 0.0 mm 9.1° 1011.2 hPa 3.1 m/s 8.6 mm 11.9° 1012.6 hPa 3.2 m/s 0.0 mm 13.1° 1012.9 hPa 3.6 m/s 0.0 mm 12.0° 1012.5 hPa 2.8 m/s 0.0 mm 10.2° 1012.3 hPa 3.0 m/s
 05:12     22:04    Daglengte: 16:52 Morgen
01:00 10.4° 1012.9 hPa 2.7 m/s 0.0 mm 6.5° 1012.0 hPa 2.8 m/s 8.6 mm 10.6° 1012.9 hPa 2.2 m/s 0.0 mm 12.2° 1013.0 hPa 2.8 m/s 0.0 mm 10.2° 1012.9 hPa 2.4 m/s 0.0 mm 8.4° 1012.9 hPa 2.3 m/s
04:00 9.8° 1012.8 hPa 2.2 m/s 0.0 mm 8.1° 1011.3 hPa 2.6 m/s 8.6 mm 10.4° 1013.0 hPa 1.7 m/s 0.0 mm 11.6° 1012.9 hPa 2.1 m/s 0.0 mm 9.7° 1012.6 hPa 2.2 m/s 0.0 mm 7.3° 1012.3 hPa 2.0 m/s
07:00 10.6° 1012.8 hPa 2.1 m/s 0.0 mm 9.8° 1011.7 hPa 1.8 m/s 8.6 mm 10.5° 1012.6 hPa 2.7 m/s 0.0 mm 11.4° 1013.3 hPa 1.7 m/s 0.0 mm 10.9° 1012.7 hPa 2.2 m/s 0.0 mm 9.0° 1012.5 hPa 2.1 m/s
10:00 14.2° 1013.0 hPa 3.2 m/s 0.0 mm 14.7° 1011.2 hPa 3.3 m/s 8.7 mm 14.5° 1013.0 hPa 4.0 m/s 0.0 mm 13.2° 1013.8 hPa 2.9 m/s 0.0 mm 14.3° 1012.9 hPa 3.0 m/s 0.0 mm 14.4° 1012.5 hPa 3.1 m/s
13:00 16.3° 1012.5 hPa 3.2 m/s 0.0 mm 16.8° 1011.0 hPa 3.5 m/s 8.7 mm 16.4° 1012.4 hPa 3.7 m/s 0.0 mm 14.6° 1013.5 hPa 2.9 m/s 0.0 mm 16.6° 1012.4 hPa 2.8 m/s 0.0 mm 16.9° 1012.1 hPa 3.5 m/s
16:00 16.5° 1011.8 hPa 3.8 m/s 0.0 mm 17.3° 1009.9 hPa 4.3 m/s 8.7 mm 17.1° 1011.4 hPa 3.9 m/s 0.0 mm 15.0° 1013.4 hPa 2.9 m/s 0.0 mm 16.5° 1011.8 hPa 3.9 m/s 0.0 mm 16.8° 1011.5 hPa 4.1 m/s
19:00 15.0° 1011.6 hPa 3.7 m/s 0.0 mm 15.5° 1009.9 hPa 4.2 m/s 8.7 mm 15.0° 1011.3 hPa 3.8 m/s 0.0 mm 14.9° 1013.4 hPa 3.4 m/s 0.0 mm 15.0° 1011.4 hPa 3.5 m/s 0.0 mm 14.7° 1010.9 hPa 3.8 m/s
22:00 11.7° 1011.8 hPa 2.2 m/s 0.0 mm 8.9° 1010.0 hPa 2.9 m/s 8.7 mm 12.1° 1011.3 hPa 1.9 m/s 0.0 mm 11.8° 1011.9 hPa 2.0 m/s 0.0 mm 9.8° 1011.3 hPa 1.8 m/s
 05:12     22:04    Daglengte: 16:52 Woensdag 19 Jun
01:00 9.9° 1011.2 hPa 2.0 m/s 0.0 mm 7.1° 1009.3 hPa 2.9 m/s 8.7 mm 10.3° 1010.7 hPa 0.8 m/s 0.0 mm 9.9° 1011.4 hPa 2.2 m/s 0.0 mm 8.1° 1010.7 hPa 1.5 m/s
04:00 9.9° 1010.1 hPa 1.8 m/s 0.0 mm 10.2° 1008.4 hPa 1.6 m/s 8.7 mm 10.4° 1009.9 hPa 0.6 m/s 0.0 mm 9.0° 1010.2 hPa 1.9 m/s 0.0 mm 7.4° 1009.7 hPa 1.5 m/s
07:00 10.8° 1009.8 hPa 2.3 m/s 0.0 mm 11.3° 1008.0 hPa 3.0 m/s 9.1 mm 11.2° 1009.6 hPa 0.9 m/s 0.0 mm 10.7° 1009.8 hPa 2.2 m/s 0.0 mm 9.7° 1009.2 hPa 1.8 m/s
10:00 13.9° 1009.2 hPa 3.5 m/s 0.9 mm 12.7° 1007.9 hPa 4.5 m/s 10.2 mm 14.1° 1009.4 hPa 3.4 m/s 0.2 mm 14.0° 1009.4 hPa 3.4 m/s 0.0 mm 14.4° 1009.4 hPa 4.4 m/s
13:00 14.7° 1009.2 hPa 5.0 m/s 3.4 mm 15.3° 1008.1 hPa 5.8 m/s 11.4 mm 15.0° 1009.1 hPa 4.5 m/s 0.9 mm 14.3° 1009.5 hPa 5.0 m/s 0.5 mm 14.6° 1009.3 hPa 5.3 m/s
16:00 14.7° 1009.0 hPa 6.2 m/s 1.0 mm 13.5° 1008.1 hPa 6.1 m/s 11.8 mm 15.2° 1008.8 hPa 6.2 m/s 0.3 mm 14.7° 1009.3 hPa 6.3 m/s 0.5 mm 14.5° 1008.8 hPa 6.3 m/s
19:00 13.2° 1009.0 hPa 5.8 m/s 0.0 mm 13.3° 1007.9 hPa 6.3 m/s 13.3 mm 13.6° 1008.7 hPa 5.7 m/s 0.0 mm 13.0° 1009.4 hPa 5.7 m/s 0.0 mm 13.3° 1008.9 hPa 5.8 m/s
22:00 11.8° 1009.3 hPa 4.1 m/s 0.0 mm 11.5° 1008.3 hPa 3.6 m/s 14.2 mm 12.0° 1009.0 hPa 3.6 m/s 0.0 mm 11.8° 1009.8 hPa 4.6 m/s 10.6° 1009.8 hPa 3.0 m/s
 05:12     22:04    Daglengte: 16:52 Donderdag 20 Jun
01:00 10.8° 1009.4 hPa 3.5 m/s 0.0 mm 10.8° 1008.0 hPa 3.9 m/s 14.6 mm 11.0° 1008.8 hPa 3.1 m/s 0.0 mm 10.7° 1010.1 hPa 3.5 m/s 9.0° 1009.2 hPa 2.9 m/s
04:00 10.5° 1010.3 hPa 3.2 m/s 8.4 mm 10.7° 1010.4 hPa 3.2 m/s 8.6° 1008.8 hPa 2.6 m/s 8.4 mm
07:00 10.6° 1010.4 hPa 3.0 m/s 8.4 mm 10.7° 1010.6 hPa 3.1 m/s 9.1° 1008.5 hPa 2.4 m/s 8.4 mm
10:00 12.4° 1011.5 hPa 4.2 m/s 8.7 mm 12.3° 1011.7 hPa 4.1 m/s 13.2° 1009.0 hPa 5.1 m/s 8.7 mm
13:00 13.9° 1012.5 hPa 5.2 m/s 9.4 mm 14.0° 1012.8 hPa 5.1 m/s 13.4° 1009.6 hPa 6.1 m/s 9.4 mm
16:00 13.7° 1013.3 hPa 5.2 m/s 10.3 mm 13.6° 1013.5 hPa 5.0 m/s 14.4° 1010.2 hPa 7.2 m/s 10.3 mm
19:00 13.2° 1014.0 hPa 4.9 m/s 10.7 mm 13.2° 1014.3 hPa 4.9 m/s 13.3° 1011.1 hPa 5.3 m/s 10.7 mm
22:00 11.3° 1015.1 hPa 3.5 m/s 10.8 mm 11.5° 1015.3 hPa 3.6 m/s 8.9° 1012.8 hPa 2.5 m/s 10.8 mm
 05:12     22:04    Daglengte: 16:52 Vrijdag 21 Jun
01:00 9.6° 1016.2 hPa 2.3 m/s 10.8 mm 9.8° 1016.4 hPa 2.3 m/s 7.4° 1013.9 hPa 1.9 m/s 10.8 mm
04:00 10.0° 1016.7 hPa 2.2 m/s 10.8 mm 10.2° 1016.8 hPa 2.2 m/s 6.9° 1014.7 hPa 1.5 m/s 10.8 mm
07:00 10.6° 1017.1 hPa 2.1 m/s 10.9 mm 10.7° 1017.3 hPa 2.2 m/s 9.2° 1015.1 hPa 1.4 m/s 10.9 mm
10:00 13.2° 1017.8 hPa 2.4 m/s 11.0 mm 13.1° 1018.0 hPa 2.5 m/s 13.2° 1016.1 hPa 2.0 m/s 11.0 mm
13:00 15.5° 1018.5 hPa 2.7 m/s 11.2 mm 15.6° 1018.7 hPa 2.7 m/s 14.6° 1016.3 hPa 2.7 m/s 11.2 mm
16:00 15.5° 1018.4 hPa 2.4 m/s 11.5 mm 15.4° 1018.5 hPa 2.2 m/s 15.7° 1016.5 hPa 4.0 m/s 11.5 mm
19:00 15.2° 1018.3 hPa 1.9 m/s 11.6 mm 15.3° 1018.4 hPa 1.8 m/s 14.4° 1016.7 hPa 3.1 m/s 11.6 mm
22:00 12.7° 1018.7 hPa 1.7 m/s 11.6 mm 13.0° 1018.8 hPa 1.7 m/s 9.0° 1017.8 hPa 1.4 m/s 11.6 mm
 05:13     22:05    Daglengte: 16:52 Zaterdag 22 Jun
01:00 10.6° 1019.0 hPa 1.5 m/s 11.6 mm 10.7° 1019.1 hPa 1.6 m/s 10.0° 1017.9 hPa 0.8 m/s 11.6 mm
04:00 10.8° 1018.5 hPa 2.1 m/s 11.6 mm 10.9° 1018.7 hPa 2.2 m/s 9.7° 1017.4 hPa 0.5 m/s 11.6 mm
07:00 11.0° 1018.1 hPa 2.7 m/s 11.6 mm 11.1° 1018.2 hPa 2.8 m/s 10.5° 1017.3 hPa 1.0 m/s 11.6 mm
10:00 14.0° 1017.6 hPa 4.1 m/s 11.6 mm 14.0° 1017.7 hPa 4.3 m/s 14.0° 1017.4 hPa 1.8 m/s 11.6 mm
13:00 16.9° 1017.1 hPa 5.4 m/s 11.7 mm 16.9° 1017.1 hPa 5.8 m/s 16.7° 1017.5 hPa 1.3 m/s 11.7 mm
16:00 16.8° 1016.5 hPa 5.0 m/s 11.9 mm 16.9° 1016.4 hPa 5.4 m/s 16.2° 1017.0 hPa 0.6 m/s 11.9 mm
19:00 16.7° 1015.8 hPa 4.7 m/s 12.2 mm 16.8° 1015.7 hPa 5.0 m/s 16.1° 1016.7 hPa 1.9 m/s 12.2 mm
22:00 14.7° 1015.9 hPa 3.8 m/s 12.4 mm 14.9° 1015.8 hPa 4.0 m/s 12.0° 1017.5 hPa 1.3 m/s 12.4 mm
 05:13     22:05    Daglengte: 16:52 Zondag 23 Jun
01:00 12.7° 1016.0 hPa 2.9 m/s 12.4 mm 13.0° 1015.8 hPa 3.0 m/s 10.0° 1017.6 hPa 1.4 m/s 12.4 mm
04:00 12.3° 1014.9 hPa 3.0 m/s 12.4 mm 12.6° 1014.6 hPa 3.2 m/s 9.5° 1017.1 hPa 1.1 m/s 12.4 mm
07:00 12.0° 1013.8 hPa 3.3 m/s 12.4 mm 12.2° 1013.5 hPa 3.4 m/s 10.2° 1017.4 hPa 1.8 m/s 12.4 mm
10:00 13.2° 1013.8 hPa 3.8 m/s 12.4 mm 13.2° 1013.4 hPa 3.8 m/s 13.1° 1018.1 hPa 3.4 m/s 12.4 mm
13:00 14.5° 1013.7 hPa 4.2 m/s 12.8 mm 14.2° 1013.3 hPa 4.2 m/s 17.8° 1018.3 hPa 4.5 m/s 12.8 mm
16:00 14.8° 1013.2 hPa 4.0 m/s 14.8 mm 14.6° 1012.8 hPa 4.0 m/s 17.8° 1018.0 hPa 4.5 m/s 14.8 mm
19:00 15.1° 1012.8 hPa 3.8 m/s 16.8 mm 14.9° 1012.3 hPa 3.8 m/s 16.9° 1018.6 hPa 4.2 m/s 16.8 mm
22:00 14.1° 1013.8 hPa 2.8 m/s 17.7 mm 14.2° 1013.2 hPa 2.8 m/s 13.5° 1019.7 hPa 3.5 m/s 17.7 mm
 05:13     22:05    Daglengte: 16:52 Maandag 24 Jun
01:00 13.2° 1014.7 hPa 1.8 m/s 17.7 mm 13.5° 1014.2 hPa 1.7 m/s 10.3° 1020.2 hPa 2.8 m/s 17.7 mm
07:00 13.0° 1016.0 hPa 2.6 m/s 17.7 mm 13.3° 1015.6 hPa 2.5 m/s 9.5° 1020.7 hPa 3.6 m/s 17.7 mm
13:00 18.2° 1017.5 hPa 2.3 m/s 17.7 mm 18.1° 1017.1 hPa 2.1 m/s 19.2° 1021.4 hPa 4.5 m/s 17.7 mm
19:00 16.9° 1018.6 hPa 3.5 m/s 18.9 mm 17.1° 1018.4 hPa 3.5 m/s 15.0° 1021.3 hPa 3.1 m/s 18.9 mm
 05:14     22:05    Daglengte: 16:51 Dinsdag 25 Jun
01:00 13.1° 1022.5 hPa 3.0 m/s 19.0 mm 13.4° 1022.5 hPa 3.1 m/s 10.1° 1022.1 hPa 2.4 m/s 19.0 mm
07:00 12.8° 1025.2 hPa 3.1 m/s 19.0 mm 13.0° 1025.5 hPa 3.2 m/s 10.8° 1021.6 hPa 2.3 m/s 19.0 mm
13:00 18.3° 1027.2 hPa 3.7 m/s 19.4 mm 18.4° 1027.7 hPa 3.7 m/s 16.8° 1022.0 hPa 4.3 m/s 19.4 mm
19:00 18.0° 1028.2 hPa 4.4 m/s 19.4 mm 18.3° 1028.7 hPa 4.2 m/s 15.1° 1022.4 hPa 6.5 m/s 19.4 mm
 05:14     22:05    Daglengte: 16:51 Woensdag 26 Jun
01:00 11.4° 1030.5 hPa 3.8 m/s 19.4 mm 11.7° 1031.1 hPa 3.8 m/s 8.4° 1024.2 hPa 3.5 m/s 19.4 mm
07:00 10.6° 1030.9 hPa 2.7 m/s 19.4 mm 10.6° 1031.5 hPa 2.6 m/s 10.1° 1024.3 hPa 3.4 m/s 19.4 mm
13:00 18.7° 1029.4 hPa 2.0 m/s 19.8 mm 19.0° 1030.0 hPa 1.7 m/s 15.0° 1023.1 hPa 5.6 m/s 19.8 mm
19:00 15.6° 1022.5 hPa 3.5 m/s 0.7 mm
 05:15     22:05    Daglengte: 16:50 Donderdag 27 Jun
01:00 11.5° 1021.7 hPa 2.0 m/s 0.9 mm
07:00 11.5° 1019.7 hPa 2.0 m/s 1.3 mm
13:00 15.3° 1018.9 hPa 2.8 m/s 0.7 mm
19:00 15.5° 1017.7 hPa 4.0 m/s 1.7 mm
 05:15     22:04    Daglengte: 16:49 Vrijdag 28 Jun
01:00 11.5° 1017.8 hPa 2.5 m/s 0.6 mm
07:00 11.6° 1016.9 hPa 1.8 m/s 0.3 mm
13:00 15.5° 1017.1 hPa 3.0 m/s 0.3 mm
19:00 15.1° 1016.4 hPa 4.1 m/s 0.7 mm
 05:16     22:04    Daglengte: 16:48 Zaterdag 29 Jun
01:00 11.0° 1016.7 hPa 1.8 m/s 0.4 mm
07:00 11.4° 1015.7 hPa 1.5 m/s 0.7 mm
13:00 15.3° 1015.6 hPa 2.5 m/s 1.1 mm
19:00 15.2° 1015.0 hPa 3.8 m/s 0.9 mm
 05:17     22:04    Daglengte: 16:47 Zondag 30 Jun
01:00 11.0° 1015.5 hPa 2.0 m/s 0.8 mm
07:00 11.5° 1014.8 hPa 1.8 m/s 1.0 mm
13:00 15.2° 1015.1 hPa 2.6 m/s 0.5 mm
19:00 15.4° 1014.8 hPa 3.1 m/s 0.7 mm
 05:17     22:04    Daglengte: 16:47 Maandag 01 Jul
01:00 11.4° 1015.4 hPa 1.5 m/s 0.6 mm
07:00 11.5° 1014.9 hPa 0.9 m/s 0.6 mm
13:00 15.3° 1015.0 hPa 2.5 m/s 0.7 mm
19:00 15.2° 1014.3 hPa 3.5 m/s 1.3 mm
FMI Hirlam - 7.5 km EWN WRFDA - 12 km DWD ICON - 7 km GFS - 25 km Basiskaart






























































Updatetijd (Europe/Amsterdam) Resolutie Lengte Stap
FMI Hirlam 01:15, 07:15, 13:15, 19:15 7.5 km 49h 1h
EWN WRFDA 22:15, 04:15, 10:15, 16:15 12 km 73h 1h
DWD ICON 23:45, 05:45, 11:45, 17:45 7 km 75h 1h
GFS 20:30, 02:30, 08:30, 14:30 25 km 237h 3h
30+ mm
25-30 mm
20-25 mm
15-20 mm
10-15 mm
6-10 mm
4-6 mm
2-4 mm
1-2 mm
0.5-1 mm
0.2-0.5 mm
0.1-0.2 mm
30+ mm
25-30 mm
20-25 mm
15-20 mm
10-15 mm
6-10 mm
4-6 mm
2-4 mm
1-2 mm
0.5-1 mm
0.2-0.5 mm
0.1-0.2 mm
Sneeuwval
Natte sneeuw
Hagel
Vorst
30+ mm
25-30 mm
20-25 mm
15-20 mm
10-15 mm
6-10 mm
4-6 mm
2-4 mm
1-2 mm
0.5-1 mm
0.2-0.5 mm
0.1-0.2 mm
Sneeuwval
Natte sneeuw
Hagel
Vorst
Onweer
50 mm
40 mm
30 mm
26 mm
22 mm
18 mm
14 mm
10 mm
9 mm
8 mm
7 mm
6 mm
5 mm
4.5 mm
4 mm
3.5 mm
3 mm
2.5 mm
2 mm
1.5 mm
1 mm
0.8 mm
0.6 mm
0.4 mm
0.2 mm
0.05 mm
35°
30°
25°
20°
15°
10°
-5°
-10°
-15°
-20°
-25°
-30°
-35°
33> m/s
29 m/s
25 m/s
21 m/s
17 m/s
14 m/s
11 m/s
8 m/s
5 m/s
3 m/s
0 m/s
2600 J/kg
2400 J/kg
2200 J/kg
2000 J/kg
1800 J/kg
1600 J/kg
1400 J/kg
1200 J/kg
1000 J/kg
800 J/kg
600 J/kg
400 J/kg
200 J/kg
70 dBZ
65 dBZ
60 dBZ
55 dBZ
50 dBZ
45 dBZ
40 dBZ
35 dBZ
30 dBZ
25 dBZ
20 dBZ
15 dBZ
10 dBZ
5 dBZ
-1 K
-2 K
-3 K
-4 K
-5 K
-6 K
-7 K
-8 K
-9 K
950 m²/s²
900 m²/s²
850 m²/s²
800 m²/s²
750 m²/s²
700 m²/s²
650 m²/s²
600 m²/s²
550 m²/s²
500 m²/s²
450 m²/s²
400 m²/s²
350 m²/s²
300 m²/s²
250 m²/s²
200 m²/s²
150 m²/s²
100 m²/s²
46 m/s
44 m/s
42 m/s
40 m/s
38 m/s
36 m/s
34 m/s
32 m/s
30 m/s
28 m/s
26 m/s
24 m/s
22 m/s
20 m/s
16 m/s
12 m/s
8 m/s
4 m/s
30 m/s
28 m/s
26 m/s
24 m/s
22 m/s
20 m/s
18 m/s
16 m/s
14 m/s
12 m/s
10 m/s
8 m/s
6 m/s
4 m/s
2 m/s
3.0
2.8
2.6
2.4
2.2
2.0
1.8
1.6
1.4
1.2
1.0
0.8
0.6
0.4
0.2
15
14
13
12
11
10
9
8
7
6
5
4
3
2
1
90%
80%
70%
60%
50%
40%
30%
20%
10%
42
40
38
36
34
32
30
28
26
24
22
20
18
16
14
12
90+ cm
80-90 cm
70-80 cm
60-70 cm
50-60 cm
40-50 cm
30-40 cm
20-30 cm
10-20 cm
1-10 cm
Sneeuwval
Natte sneeuw
Regen
>120 mm
115 mm
110 mm
105 mm
100 mm
95 mm
90 mm
85 mm
80 mm
75 mm
70 mm
65 mm
60 mm
55 mm
50 mm
45 mm
45 mm
40 mm
35 mm
30 mm
25 mm
20 mm
15 mm
10 mm
5 mm
0.1 mm
960 hPa
880 hPa
800 hPa
720 hPa
640 hPa
560 hPa
584 gpdm
568 gpdm
552 gpdm
536 gpdm
520 gpdm
504 gpdm
488 gpdm
Extreem zwaar Noodweer Kans op onweer
15% 15% 5% 50% 15%

Dag




Kaart






35°
30°
25°
20°
15°
10°
-5°
-10°